Regional Weather Roundup
Issued by NWS

Home | Current Version | Previous Version | Graphics & Text | Print | Product List | Glossary On
Versions: 1 2 3 4 5 6 7 8 9 10 11 12 13 14 15 16 17 18 19 20 21 22 23 24 25 26 27 28 29 30 31 32 33 34 35 36 37 38 39 40 41 42 43 44 45 46 47 48 49 50
000
ASUS43 KOAX 201102
RWRNE

WEATHER ROUNDUP FOR NEBRASKA
NATIONAL WEATHER SERVICE OMAHA NE
600 AM CDT WED AUG 20 2014

NOTES: SATELLITE DATA IS BEING USED TO AUGMENT CLOUD COVER ABOVE
       12000 FEET.
       "FAIR" INDICATES FEW OR NO CLOUDS BELOW 12,000 FEET WITH NO
       SIGNIFICANT WEATHER AND/OR OBSTRUCTIONS TO VISIBILITY.

  * THESE STATIONS DO NOT REPORT WEATHER SUCH AS RAIN...SNOW OR FOG.

NEZ001>004-019>022-054>056-201200-
NEBRASKA PANHANDLE

CITY           SKY/WX    TMP DP  RH WIND       PRES   REMARKS
SCOTTSBLUFF    CLOUDY    65  59  81 NE5       29.83S
ALLIANCE       CLOUDY    64  57  78 S8        29.82F
CHADRON        CLOUDY    73  53  49 CALM      29.73F
KIMBALL        CLOUDY    63  55  77 W3        29.89S
SIDNEY         CLOUDY    62  59  90 E7        29.86R
$$

NEZ057>060-069>072-079>082-201200-
SOUTHWEST NEBRASKA

CITY           SKY/WX    TMP DP  RH WIND       PRES   REMARKS
NORTH PLATTE   MOCLDY    72  61  68 VRB3      29.75R
IMPERIAL       MOCLDY    66  62  87 SE3       29.78S
LEXINGTON      CLOUDY    73  66  80 S9        29.75F
MCCOOK         LGT RAIN  73  64  73 S10       29.77S
OGALLALA       MOCLDY    61  60  97 W3        29.78F
$$

NEZ005>010-023>029-035>040-094-201200-
NORTH CENTRAL NEBRASKA

CITY           SKY/WX    TMP DP  RH WIND       PRES   REMARKS
VALENTINE      PTCLDY    63  62  97 CALM      29.74R
AINSWORTH      CLEAR     67  66  97 CALM      29.75S
BROKEN BOW     CLOUDY    71  65  81 SE8       29.74S
O`NEILL        CLOUDY    71  69  94 E6        29.73F
ORD            CLOUDY    71  67  87 SE3       29.73S
THEDFORD       MOCLDY    70  62  75 S6        29.77S
$$

NEZ041-046>049-061>064-073>077-083>087-201200-
SOUTH CENTRAL NEBRASKA

CITY           SKY/WX    TMP DP  RH WIND       PRES   REMARKS
GRAND ISLAND   CLOUDY    74  65  73 S12       29.76F
AURORA         MOCLDY    73  68  84 S12       29.76F
HASTINGS       MOCLDY    71  62  73 S6        29.78S
HEBRON         PTCLDY    72  64  74 S6        29.79S
HOLDREGE       CLOUDY    73  64  71 S12       29.78S
KEARNEY *      CLOUDY    70  64  83 SE9       29.77F
$$

NEZ011>018-030>034-042>045-201200-
NORTHEAST NEBRASKA

CITY           SKY/WX    TMP DP  RH WIND       PRES   REMARKS
NORFOLK        CLOUDY    72  67  84 NE8       29.78R
ALBION         CLOUDY    72  66  82 SE3       29.75R
BLAIR          CLOUDY    73  68  85 S3        29.76F
COLUMBUS *     CLOUDY    73  66  78 S5        29.75R
FREMONT        CLOUDY    74  69  83 CALM      29.76S
TEKAMAH        CLOUDY    70  67  90 CALM      29.76F
WAYNE          CLOUDY    71  68  92 E5        29.78S
$$

NEZ050>053-065>068-078-088>093-201200-
SOUTHEAST NEBRASKA

CITY           SKY/WX    TMP DP  RH WIND       PRES   REMARKS
LINCOLN        CLOUDY    77  67  71 SW12      29.77R
OMAHA EPPLEY   CLOUDY    74  67  78 SE9       29.76S
BEATRICE       MOCLDY    75  68  77 S7        29.79R
FALLS CITY     CLOUDY    74  69  85 S7        29.79R
NEBRASKA CITY  CLOUDY    73  70  90 SW8       29.78R
PLATTSMOUTH    CLOUDY    74  69  86 S5        29.77R
$$

NEZ044-045-051>053-067-201200-
OMAHA AREA

CITY           SKY/WX    TMP DP  RH WIND       PRES   REMARKS
OMAHA EPPLEY   CLOUDY    74  67  78 SE9       29.76S
BLAIR          CLOUDY    73  68  85 S3        29.76F
FREMONT        CLOUDY    74  69  83 CALM      29.76S
MILLARD        CLOUDY    74  70  86 SE5       29.75S
OFFUTT AFB     CLOUDY    72  72 100 E5        29.76R
PLATTSMOUTH    CLOUDY    74  69  86 S5        29.77R
WAHOO          FAIR      71  68  90 CALM      29.76R
$$


USA.gov is the U.S. government's official web portal to all federal, state and local government web resources and services.